Flag for India Weather past 2 weeks in Bhilwara, Rajasthan, India

Now
93 °F

Haze.


Feels Like: 90 °F
Forecast: 78 / 100 °F
Wind: 10 mph from West

Location: Jaipur / Sanganer


UV Index: 10 (Very high)

Visibility: 3 mi


Pressure: 29.83 "Hg

Humidity: 20%

Dew point: 46 °F

Location of BhilwaraLocation

Historic Weather in Bhilwara

°F

Bhilwara temperature yesterday

Maximum temperature yesterday: 97 °F (at 3:30 PM)
Minimum temperature yesterday: 75 °F (at 7:00 PM)
Average temperature yesterday: 84 °F

Past Weeks' High & Low Weather Summary

 TemperatureHumidityPressure
High100 °F (Apr 13, 2:00 PM)83% (Apr 19, 5:30 AM)30.04 "Hg (Apr 19, 5:30 AM)
Low68 °F (Apr 19, 8:00 AM)6% (Apr 12, 2:00 PM)29.53 "Hg (Apr 17, 2:00 PM)
Average84 °F30%29.88 "Hg
* Reported Apr 8 4:00 PM — Apr 23 4:00 PM, Bhilwara, Weather by CustomWeather, © 2014

Note: Actual official high and low records may vary slightly from our data, if they occured in-between our weather recording intervals... More about our weather records

Advertising

Historic Weather Conditions — Data for Previous 24 hours

 ConditionsComfort  
Time TempWeatherWind HumidityBarometerVisibility
4:00 PM
Apr 23
93 °FScattered clouds.5 mph20%29.83 "Hg3 mi
3:00 PM93 °FHaze.7 mph21%29.86 "Hg3 mi
2:00 PM91 °FHaze.3 mph24%29.89 "Hg2 mi
1:30 PM91 °FHaze.5 mph24%29.92 "Hg2 mi
1:00 PM91 °FHaze.6 mph24%29.95 "Hg2 mi
12:00 PM88 °FHaze.8 mph29%29.98 "Hg2 mi
11:00 AM86 °FHaze.7 mph33%29.98 "Hg2 mi
10:00 AM84 °FHaze.9 mph35%30.01 "Hg2 mi
9:00 AM81 °FHaze.6 mph39%29.98 "Hg2 mi
7:00 AM73 °FHaze.No wind53%29.95 "Hg1 mi
6:00 AM70 °FHaze.No wind69%29.95 "Hg1 mi
5:00 AM70 °FPartly cloudy.No wind69%29.92 "Hg1 mi
4:00 AM72 °FPartly cloudy.No wind65%29.92 "Hg1 mi
3:30 AM72 °FPartly cloudy.No wind65%29.92 "Hg1 mi
12:00 AM73 °FPartly cloudy.5 mph57%29.95 "Hg1 mi
11:00 PM
Apr 22
75 °FPartly cloudy.2 mph50%29.95 "Hg1 mi
10:00 PM77 °FPartly cloudy.5 mph54%29.95 "Hg1 mi
9:00 PM77 °FPartly cloudy.5 mph51%29.95 "Hg1 mi
8:00 PM79 °FMostly cloudy.8 mph42%29.98 "Hg1 mi
7:30 PM75 °FMostly cloudy.8 mph54%29.98 "Hg1 mi
7:00 PM75 °FThunderstorms. More clouds than sun.10 mph54%30.01 "Hg1 mi
6:00 PM77 °FMore clouds than sun.18 mph51%29.98 "Hg1 mi
Weather by CustomWeather, © 2014

See weather overview